TimeEST,TemperatureF,Dew PointF,Humidity,Sea Level PressureIn,VisibilityMPH,Wind Direction,Wind SpeedMPH,Gust SpeedMPH,PrecipitationIn,Events,Conditions,WindDirDegrees,DateUTC
12:53 AM,75.9,61.0,60,30.16,10.0,East,8.1,-,N/A,,Scattered Clouds,90,2012-11-12 05:53:00
1:53 AM,75.9,63.0,64,30.14,10.0,East,9.2,-,N/A,,Scattered Clouds,80,2012-11-12 06:53:00
2:53 AM,75.9,63.0,64,30.11,10.0,East,11.5,-,N/A,,Partly Cloudy,80,2012-11-12 07:53:00
3:53 AM,75.9,64.0,67,30.10,10.0,East,9.2,-,N/A,,Scattered Clouds,80,2012-11-12 08:53:00
4:53 AM,75.0,64.0,69,30.10,10.0,ENE,10.4,-,N/A,,Mostly Cloudy,70,2012-11-12 09:53:00
5:09 AM,75.2,64.4,69,30.11,10.0,ENE,9.2,-,0.00,,Mostly Cloudy,70,2012-11-12 10:09:00
5:18 AM,75.2,62.6,65,30.11,10.0,East,11.5,17.3,0.00,,Scattered Clouds,90,2012-11-12 10:18:00
5:53 AM,75.9,62.1,62,30.11,10.0,East,10.4,-,0.00,,Mostly Cloudy,80,2012-11-12 10:53:00
6:53 AM,75.9,64.0,67,30.13,10.0,East,9.2,-,N/A,,Scattered Clouds,80,2012-11-12 11:53:00
7:53 AM,77.0,64.0,64,30.13,10.0,East,10.4,18.4,N/A,,Partly Cloudy,90,2012-11-12 12:53:00
8:53 AM,78.1,64.0,62,30.15,10.0,East,11.5,-,N/A,,Clear,90,2012-11-12 13:53:00
9:53 AM,80.1,64.9,60,30.16,10.0,East,11.5,18.4,N/A,,Partly Cloudy,90,2012-11-12 14:53:00
10:53 AM,81.0,64.0,56,30.15,10.0,East,11.5,20.7,N/A,,Partly Cloudy,90,2012-11-12 15:53:00
11:53 AM,81.0,64.9,58,30.14,10.0,East,12.7,19.6,N/A,,Scattered Clouds,80,2012-11-12 16:53:00
12:53 PM,82.9,64.0,53,30.13,10.0,East,10.4,17.3,N/A,,Partly Cloudy,90,2012-11-12 17:53:00
1:53 PM,82.0,64.0,54,30.11,10.0,East,11.5,18.4,N/A,,Clear,80,2012-11-12 18:53:00
2:53 PM,81.0,64.0,56,30.09,10.0,East,13.8,20.7,N/A,,Clear,80,2012-11-12 19:53:00
3:53 PM,81.0,64.0,56,30.09,10.0,ENE,15.0,-,N/A,,Clear,60,2012-11-12 20:53:00
4:53 PM,77.0,66.0,69,30.09,10.0,NE,11.5,-,N/A,,Clear,50,2012-11-12 21:53:00
5:53 PM,75.0,66.0,73,30.09,10.0,NE,8.1,-,N/A,,Clear,50,2012-11-12 22:53:00
6:53 PM,75.0,66.0,73,30.11,10.0,NE,9.2,-,N/A,,Clear,40,2012-11-12 23:53:00
7:53 PM,73.9,66.0,76,30.12,10.0,ENE,8.1,-,N/A,,Clear,60,2012-11-13 00:53:00
8:53 PM,73.9,66.0,76,30.12,10.0,NE,8.1,-,N/A,,Clear,40,2012-11-13 01:53:00
9:53 PM,73.9,66.0,76,30.12,10.0,NNE,6.9,-,N/A,,Partly Cloudy,30,2012-11-13 02:53:00
10:53 PM,73.9,66.9,79,30.11,10.0,ENE,9.2,-,0.00,,Partly Cloudy,60,2012-11-13 03:53:00
11:53 PM,73.9,66.9,79,30.09,10.0,NE,8.1,-,N/A,,Clear,50,2012-11-13 04:53:00